Das Wetter in  D-61279 Heinzenberg / Taunus





Wetter Minimum- & Maximum-Werte im Juli 2012

Standort: Heinzenberg / Taunus - Höhe 297 m         8 24' 1" Ost 50 21' 51" Nord
(   3-stündige Aktualisierung    letzte Aktualisierung um 19:04 am 31.07.2012  )


Messgrösse

Minimum

Maximum

Durchschnitt

Temperatur West /
Luftfeuchte West
Anklicken für Monats-Diagramm

6,3 C

06:41
22.07.2012

31 %

17:41
23.07.2012

33,6 C

17:30
27.07.2012

99 %

05:01
06.07.2012

Temp

17,2 C

Feuchte

78 %

Temperatur Ost /
Luftfeuchte Ost
Anklicken für Monats-Diagramm

6,3 C

06:36
22.07.2012

--

--
--

33,0 C

16:35
27.07.2012

--

--
--

17,1 C

--

Luftdruck Anklicken für Monats-Diagramm

999,9 hPa

04:43
14.07.2012

1030,3 hPa

01:11
23.07.2012

1015,2 hPa

Taupunkt

5,3 C

06:41
22.07.2012

21,2 C

11:10
27.07.2012

12,9 C

Windchill
( gefühlte Temperatur )

1,5 C

12:26
12.07.2012

33,6 C

17:30
27.07.2012

15,5 C

Windgeschwindigkeit /
Windrichtung
Anklicken für Monats-Diagramm

---

67,6 km/h / SW

19:00
27.07.2012

8,8 km/h
W-SW

Helligkeit /
Sonnenschein
Anklicken für Monats-Diagramm
Anklicken für Monats-Diagramm

Sonnenschein:

178:46 Stunden

Max: 14:00 Std am
23.07.2012

119 klux

12:41
06.07.2012

32 klux

Solarstrahlung Anklicken für Monats-Diagramm

---

814 W/m

12:41
06.07.2012

233 W/m

Regenmenge
    Juli 2012
Anklicken für Monats-Diagramm

Insgesamt 138,5 l/m

in 56:18 Stunden
an 21 Tagen

35,4 l/m

02:58
14.07.2012

Gesamtmenge

138,5 l/m

Regen-Tage
    Juli 2012
Anklicken für Monats-Diagramm

>   0 mm/Tag

>   2 mm/Tag

>   5 mm/Tag

> 10 mm/Tag

> 20 mm/Tag

21 Tage     
11 Tage     
5 Tage     
4 Tage     
3 Tage     

Eisige Tage Juli 2012 / 2011

Tmin ≤ -10C     

0 Tage

/

0 Tage

Eistage Juli 2012 / 2011

Tmax <     0C     

0 Tage

/

0 Tage

Frosttage Juli 2012 / 2011

Tmin ≤     0C     

0 Tage

/

0 Tage

Kalte Tage Juli 2012 / 2011

Tmax <   10C     

0 Tage

/

0 Tage

Warme Tage Juli 2012 / 2011

Tmax ≥   20C     

22 Tage

/

19 Tage

Sommertage Juli 2012 / 2011

Tmax ≥   25C     

8 Tage

/

9 Tage

Heisse Tage Juli 2012 / 2011

Tmax ≥   30C     

4 Tage

/

0 Tage


Monatsdiagramm Juli 2012

Die Kurven zeigen den Durchschnittswert des jeweiligen Tages an


Wetter-Monatsübersicht Juli 2012
Datum
  Temperatur
   Luftdruck
   Wind
  Regen
   Luftfeuchte
   Helligkeit

Sonnen-
schein


Temp.

Min.
Temp.

Max.
Temp.


Luftdruck

Min.
Luftdruck

Max.
Luftdruck

-Geschw.
Haupt-Richtg.

Max.
Wind

Menge /
Dauer


Feuchte

Min.
Feuchte

Max.
Feuchte


Helligkeit

Max.
Helligkeit

1.
Juli
17,6 C13,9 C
23:57
21,9 C
13:51
1016,0 hPa1011,6 hPa
00:01
1020,5 hPa
23:57
6,9 km/h
SW
34,1 km/h
14:21  
1,7 l/m
1:35 Stunden
82 %67 %
13:31
93 %
02:31
21,1 klux108,0 klux
13:41
1:40 Std 
2.
Juli
14,1 C10,5 C
04:17
17,1 C
18:02
1020,1 hPa1018,1 hPa
18:02
1022,0 hPa
04:17
0,3 km/h
N-NO
11,4 km/h
15:47  
0,6 l/m
1:25 Stunden
91 %83 %
15:52
95 %
07:47
11 klux43 klux
14:52
--- 
3.
Juli
18,6 C14,0 C
05:43
25,6 C
17:28
1017,8 hPa1015,0 hPa
19:08
1019,5 hPa
05:48
2,5 km/h
W-NW
21,6 km/h
16:33  
---
75 %42 %
17:28
98 %
05:53
41,7 klux94,5 klux
13:53
9:50 Std 
4.
Juli
20,0 C11,7 C
05:44
28,3 C
18:39
1013,9 hPa1010,6 hPa
18:39
1017,5 hPa
02:29
1,8 km/h
O-SO
19,4 km/h
11:54  
---
70 %42 %
13:29
94 %
08:34
37,2 klux87,2 klux
13:04
7:10 Std 
5.
Juli
20,2 C15,2 C
05:45
28,8 C
16:50
1010,3 hPa1008,2 hPa
19:20
1012,8 hPa
00:10
3,0 km/h
O-SO
53,5 km/h
20:50  
34,4 l/m
1:50 Stunden
81 %49 %
15:30
96 %
22:30
35,2 klux100,0 klux
12:50
6:00 Std 
6.
Juli
18,2 C13,8 C
04:21
24,3 C
18:51
1011,1 hPa1009,0 hPa
02:41
1014,1 hPa
23:57
5,5 km/h
SW
25,1 km/h
13:11  
0,3 l/m
25 Minuten
84 %55 %
18:31
99 %
05:01
28 klux119 klux
12:41
5:00 Std 
7.
Juli
18,7 C13,0 C
06:17
24,5 C
17:17
1012,4 hPa1010,2 hPa
19:32
1014,4 hPa
04:57
5,1 km/h
W-SW
31,3 km/h
12:02  
---
76 %50 %
13:07
96 %
07:12
36 klux105 klux
12:07
8:00 Std 
8.
Juli
17,0 C12,6 C
05:23
23,2 C
16:48
1009,2 hPa1006,9 hPa
08:03
1012,1 hPa
23:58
14,7 km/h
SW
49,2 km/h
19:28  
4,6 l/m
3:00 Stunden
81 %58 %
16:53
97 %
11:38
33 klux115 klux
12:38
5:29 Std 
9.
Juli
17,4 C13,9 C
07:03
22,4 C
16:18
1012,8 hPa1012,1 hPa
00:03
1014,3 hPa
07:43
13,5 km/h
SW
36,3 km/h
11:58  
---
20 Minuten
76 %60 %
16:28
88 %
23:49
34 klux103 klux
11:48
7:14 Std 
10.
Juli
17,7 C13,9 C
06:19
22,9 C
15:34
1013,1 hPa1010,4 hPa
20:14
1014,3 hPa
06:19
3,3 km/h
W-NW
40,0 km/h
16:54  
2,7 l/m
1:25 Stunden
82 %61 %
13:19
95 %
06:34
32 klux114 klux
14:29
6:35 Std 
11.
Juli
15,4 C13,0 C
17:10
20,4 C
15:30
1013,5 hPa1012,5 hPa
15:30
1014,4 hPa
17:10
12,5 km/h
W-SW
41,7 km/h
16:10  
1,4 l/m
2:00 Stunden
81 %58 %
16:00
93 %
00:20
25 klux118 klux
14:55
2:20 Std 
12.
Juli
13,8 C10,6 C
04:46
19,2 C
18:11
1014,9 hPa1014,0 hPa
11:11
1015,7 hPa
05:31
19,4 km/h
W-SW
53,0 km/h
11:16  
3,8 l/m
1:35 Stunden
81 %57 %
18:46
94 %
01:16
35 klux100 klux
14:51
6:25 Std 
13.
Juli
14,6 C12,7 C
00:47
18,9 C
16:02
1008,4 hPa1003,7 hPa
20:47
1014,5 hPa
00:47
14,0 km/h
SW
34,3 km/h
17:47  
21,0 l/m
13:01 Stunden
90 %79 %
17:12
97 %
09:02
19 klux105 klux
15:12
40 Min 
14.
Juli
14,7 C11,9 C
23:54
18,7 C
19:13
1005,7 hPa999,9 hPa
04:43
1010,4 hPa
23:54
17,3 km/h
W-SW
50,1 km/h
16:08  
35,4 l/m
8:05 Stunden
87 %63 %
18:58
98 %
03:58
31 klux117 klux
12:53
4:10 Std 
15.
Juli
13,6 C11,0 C
03:39
17,8 C
16:59
1013,9 hPa1010,4 hPa
00:59
1020,8 hPa
23:50
12,2 km/h
W-SW
35,6 km/h
10:54  
4,6 l/m
1:20 Stunden
87 %69 %
14:24
96 %
15:44
26 klux110 klux
13:04
3:35 Std 
16.
Juli
13,7 C10,0 C
05:55
18,0 C
13:55
1023,4 hPa1020,8 hPa
00:00
1024,9 hPa
08:25
15,0 km/h
W-SW
35,9 km/h
12:25  
1,1 l/m
2:35 Stunden
83 %59 %
14:10
97 %
05:30
30 klux113 klux
11:40
2:30 Std 
17.
Juli
15,0 C13,0 C
00:16
17,6 C
19:11
1021,8 hPa1019,4 hPa
04:40
1023,5 hPa
22:42
21,5 km/h
W-SW
35,3 km/h
06:41  
5,3 l/m
9:05 Stunden
92 %82 %
04:56
98 %
09:36
17 klux85 klux
16:36
45 Min 
18.
Juli
18,7 C13,6 C
05:27
24,5 C
17:12
1016,4 hPa1009,6 hPa
23:08
1023,5 hPa
00:17
18,9 km/h
SW
41,0 km/h
12:37  
---
75 %51 %
17:17
92 %
05:12
37,0 klux99,7 klux
14:52
5:55 Std 
19.
Juli
17,1 C13,9 C
23:49
21,1 C
15:38
1010,0 hPa1007,8 hPa
07:48
1013,3 hPa
23:49
20,6 km/h
W-SW
46,6 km/h
14:43  
---
5 Minuten
72 %48 %
15:43
85 %
03:53
29 klux110 klux
13:13
3:20 Std 
20.
Juli
15,1 C11,2 C
06:04
19,4 C
15:04
1015,0 hPa1013,3 hPa
00:04
1017,4 hPa
23:30
6,9 km/h
W-SW
24,8 km/h
12:54  
0,2 l/m
40 Minuten
79 %59 %
14:09
94 %
06:59
28 klux83 klux
12:24
2:40 Std 
21.
Juli
14,0 C10,5 C
23:56
18,5 C
18:05
1020,7 hPa1017,4 hPa
00:05
1026,1 hPa
23:56
3,5 km/h
NW
20,3 km/h
14:55  
3,6 l/m
1:15 Stunden
80 %56 %
18:05
96 %
08:55
24,6 klux106,0 klux
12:45
2:10 Std 
22.
Juli
14,0 C6,3 C
06:41
22,8 C
19:11
1027,6 hPa1026,1 hPa
00:01
1029,1 hPa
23:56
1,9 km/h
N-NO
20,0 km/h
15:56  
---
70 %40 %
18:21
95 %
07:46
41 klux104 klux
12:21
10:40 Std 
23.
Juli
16,8 C7,1 C
06:46
27,0 C
18:36
1026,5 hPa1022,1 hPa
18:41
1030,3 hPa
01:11
5,0 km/h
SO
25,3 km/h
11:17  
---
63 %31 %
17:41
92 %
07:06
46 klux82 klux
13:36
14:00 Std 
24.
Juli
19,8 C9,4 C
05:58
30,2 C
18:38
1018,6 hPa1013,5 hPa
19:18
1023,8 hPa
01:08
3,1 km/h
NO
24,0 km/h
13:13  
---
66 %38 %
14:33
92 %
08:08
44,0 klux79,7 klux
13:08
13:05 Std 
25.
Juli
22,4 C14,1 C
06:54
31,0 C
17:14
1014,3 hPa1012,4 hPa
17:14
1016,1 hPa
08:39
3,8 km/h
W-NW
20,4 km/h
15:04  
---
69 %39 %
16:24
93 %
07:54
43,3 klux78,7 klux
13:39
13:00 Std 
26.
Juli
23,2 C16,1 C
06:49
31,2 C
18:44
1015,7 hPa1013,4 hPa
19:09
1017,8 hPa
09:04
1,4 km/h
W
12,2 km/h
15:19  
---
71 %44 %
13:54
91 %
06:59
39,3 klux84,1 klux
14:19
8:19 Std 
27.
Juli
23,6 C15,9 C
06:50
33,6 C
17:30
1011,7 hPa1006,1 hPa
18:30
1015,8 hPa
02:30
5,9 km/h
SW
67,6 km/h
19:00  
---
20 Minuten
71 %32 %
14:30
94 %
08:25
39,2 klux78,8 klux
14:05
10:15 Std 
28.
Juli
19,6 C16,6 C
06:46
23,2 C
12:21
1008,7 hPa1007,5 hPa
02:41
1010,7 hPa
22:42
8,0 km/h
W
34,8 km/h
00:41  
14,1 l/m
4:01 Stunden
88 %73 %
12:16
96 %
07:56
27,7 klux105,0 klux
14:36
4:45 Std 
29.
Juli
16,7 C11,5 C
23:58
20,2 C
16:52
1012,9 hPa1009,8 hPa
00:02
1017,7 hPa
23:58
10,0 km/h
W
36,7 km/h
12:52  
0,2 l/m
20 Minuten
79 %49 %
15:37
97 %
02:12
31 klux108 klux
13:12
4:10 Std 
30.
Juli
14,7 C9,6 C
03:48
20,1 C
18:48
1017,4 hPa1015,8 hPa
04:53
1019,6 hPa
23:44
11,9 km/h
W-SW
38,5 km/h
13:18  
3,6 l/m
1:56 Stunden
72 %43 %
18:18
96 %
08:13
36 klux98 klux
13:18
6:29 Std 
31.
Juli
15,9 C10,3 C
03:29
21,2 C
13:59
1018,7 hPa1017,6 hPa
18:04
1019,9 hPa
05:04
4,0 km/h
SW
27,7 km/h
14:09  
---
74 %53 %
13:04
91 %
06:54
29,8 klux104,0 klux
12:54
2:35 Std 



Juli
2012

Temperatur

  

Luftdruck

  

Wind

  

Regen

  

Luftfeuchte

  

Helligkeit

Sonnen-
schein

Min

Max

Min

Max

Max

Max

Min

Max

Max

Max

17,2 C

6,3 C

06:41 Uhr
22.07.2012

33,6 C

17:30 Uhr
27.07.2012

1015,2 hPa

999,9 hPa

04:43 Uhr
14.07.2012

1030,3 hPa

01:11 Uhr
23.07.2012

8,8 km/h

W-SW

67,6 km/h

19:00 Uhr
27.07.2012

35,4 l/m

8:05 Stunden
14.07.2012

78 %

31 %

17:41 Uhr
23.07.2012

99 %

05:01 Uhr
06.07.2012

32 klux

119,0 klux

12:41 Uhr
06.07.2012

14:00 Std

am
23.07.2012

Gesamt

Gesamt

138,5 l/m

21 Tage
56:18 h

178:46 Std


Wetter-Diagramme Juli 2012     Heinzenberg / Taunus   
TemperaturLuftfeuchte
SolarstrahlungLuftdruck
HelligkeitSonnenschein
RegenmengeRegendauer
Wind-GeschwindigkeitWind-Richtung